This is the latest recevied weather packets stored in our database for station/object WA1TYB-13. If no packets are shown the sender has not sent any weather packets the latest 10 day(s).
| Time | Temp. | Humidity | Pressure | Rain* | Wind** | Luminosity | Snow |
|---|---|---|---|---|---|---|---|
| 1777822600 | 12.78° C | 57% | 1017.8 hPa | 0 mm | - | 424 W/m² | - |
| 1777822297 | 12.78° C | 57% | 1017.8 hPa | 0 mm | - | 432 W/m² | - |
| 1777821995 | 12.22° C | 58% | 1017.8 hPa | 0 mm | - | 400 W/m² | - |
| 1777821693 | 11.67° C | 60% | 1017.9 hPa | 0 mm | - | 372 W/m² | - |
| 1777821390 | 11.11° C | 59% | 1017.7 hPa | 0 mm | - | 340 W/m² | - |
| 1777821087 | 10.56° C | 62% | 1018 hPa | 0 mm | - | 344 W/m² | - |
| 1777820784 | 10.56° C | 62% | 1017.9 hPa | 0 mm | - | 288 W/m² | - |
| 1777820480 | 10.56° C | 63% | 1017.9 hPa | 0 mm | - | 281 W/m² | - |
| 1777820177 | 10° C | 63% | 1018.2 hPa | 0 mm | - | 278 W/m² | - |
| 1777819874 | 10° C | 63% | 1018.2 hPa | 0 mm | - | 251 W/m² | - |
| 1777819571 | 10° C | 65% | 1018.1 hPa | 0 mm | - | 246 W/m² | - |
| 1777819269 | 9.44° C | 65% | 1018 hPa | 0 mm | - | 207 W/m² | - |
| 1777818966 | 9.44° C | 65% | 1018.2 hPa | 0 mm | - | 200 W/m² | - |
| 1777818662 | 9.44° C | 65% | 1018.4 hPa | 0 mm | - | 182 W/m² | - |
| 1777818359 | 8.89° C | 66% | 1018.5 hPa | 0 mm | - | 65 W/m² | - |
| 1777818056 | 8.89° C | 67% | 1018.1 hPa | 0 mm | - | 132 W/m² | - |
| 1777817752 | 8.33° C | 68% | 1018.2 hPa | 0 mm | - | 120 W/m² | - |
| 1777817450 | 8.33° C | 68% | 1018.2 hPa | 0 mm | - | 127 W/m² | - |
| 1777817146 | 8.33° C | 67% | 1018.5 hPa | 0 mm | - | 133 W/m² | - |
| 1777816844 | 7.78° C | 65% | 1018.7 hPa | 0 mm | - | 53 W/m² | - |
| 1777816541 | 7.78° C | 67% | 1018.5 hPa | 0 mm | - | 118 W/m² | - |
| 1777816238 | 8.33° C | 66% | 1018.4 hPa | 0 mm | - | 100 W/m² | - |
| 1777815935 | 8.33° C | 67% | 1018.1 hPa | 0 mm | - | 42 W/m² | - |
| 1777815633 | 7.78° C | 67% | 1018.4 hPa | 0 mm | - | 40 W/m² | - |
| 1777815330 | 7.22° C | 69% | 1018.2 hPa | 0 mm | - | 39 W/m² | - |
* Rain latest hour (hover to see other rain measurements)
** Current wind speed in m/s (hover to see current wind gust speed)